Indian River Inlet Bridge North DE USA current weather conditions

sailwx.info

Wind from 115 at 10 knots gusting 13

Air temperature 15.4° C
Dewpoint 11.4° C

Last reported at 2019-Nov-11 20:00 UTC.
Time now 2019-Nov-11 21:00 UTC

Location: N 38°37' W 075°04'.
View on Google Maps.

See reports from other nearby stations

  
Tides and Currents Weather Stations Pressure Air Temp Water Temp Dewpoint Dewpoint Depression Visibility Wind Speed Wind Dir Waves Ship Positions
date/time (UTC)wind fromknots sea level pressurealtimeterstation pressurevisibilityair tempwater tempwave heightnotes
2019-Nov-11 20:00 115 10 gusting 13 15.4
2019-Nov-11 19:50 110 9 gusting 12 15.6
2019-Nov-11 19:45 115 9 gusting 12 15.4
2019-Nov-11 19:40 115 8 gusting 11 15.8
2019-Nov-11 19:35 120 9 gusting 11 15.8
2019-Nov-11 19:30 115 10 gusting 11 15.7
2019-Nov-11 19:25 115 9 gusting 13 15.8
2019-Nov-11 19:20 120 8 gusting 13 15.7
2019-Nov-11 19:15 120 11 gusting 13 15.8
2019-Nov-11 19:10 120 11 gusting 12 15.9
2019-Nov-11 19:05 120 10 gusting 13 15.8
2019-Nov-11 19:00 120 11 gusting 13 15.4
2019-Nov-11 18:55 120 11 gusting 14 15.4
2019-Nov-11 18:50 120 11 gusting 14 15.6
2019-Nov-11 18:45 120 12 gusting 13 15.6
2019-Nov-11 18:40 115 10 gusting 13 15.8
2019-Nov-11 18:35 120 11 gusting 13 16.6
2019-Nov-11 18:30 095 9 gusting 12 15.9
2019-Nov-11 18:25 115 9 gusting 12 15.8
2019-Nov-11 18:20 115 9 gusting 11 15.8
2019-Nov-11 18:15 110 8 gusting 11 15.8
2019-Nov-11 18:10 110 7 gusting 10 15.9
2019-Nov-11 18:05 115 8 gusting 10 16.1
2019-Nov-11 18:00 115 7 gusting 11 16.1
2019-Nov-11 17:55 115 9 gusting 11 15.9
2019-Nov-11 17:50 120 9 gusting 11 15.9
2019-Nov-11 17:45 120 9 gusting 11 15.4
2019-Nov-11 17:40 120 9 gusting 11 15.2
2019-Nov-11 17:35 115 9 gusting 11 15.2
2019-Nov-11 17:30 115 7 gusting 10 15.2
2019-Nov-11 17:25 115 8 gusting 10 15.2
2019-Nov-11 17:20 115 8 gusting 9 15.2
2019-Nov-11 17:15 115 8 gusting 9 15.1
2019-Nov-11 17:10 110 7 gusting 9 15.4
2019-Nov-11 17:05 110 6 gusting 9 15.8
2019-Nov-11 17:00 105 4 gusting 9 15.8
2019-Nov-11 16:55 095 7 gusting 9 15.4
2019-Nov-11 16:50 125 2 gusting 4 17.9
2019-Nov-11 16:45 160 2 gusting 3 17.4
2019-Nov-11 16:40 165 2 gusting 5 17.2
2019-Nov-11 16:35 160 2 gusting 6 15.8
2019-Nov-11 16:30 085 3 gusting 6 16.8
2019-Nov-11 16:25 085 2 gusting 3 16.8
2019-Nov-11 16:20 225 0 gusting 4 16.6
2019-Nov-11 16:15 200 2 gusting 4 16.4
2019-Nov-11 16:10 215 2 gusting 4 16.1
2019-Nov-11 16:05 195 3 gusting 5 15.6
2019-Nov-11 16:00 200 3 gusting 5 15.6
2019-Nov-11 15:55 200 4 gusting 5 15.2
2019-Nov-11 15:50 210 4 gusting 6 15.4
2019-Nov-11 15:45 205 4 gusting 6 15.3
2019-Nov-11 15:40 205 4 gusting 6 15.4
2019-Nov-11 15:35 195 4 gusting 6 14.7
2019-Nov-11 15:30 210 4 gusting 6 14.9
2019-Nov-11 15:25 200 4 gusting 7 15.2
2019-Nov-11 15:20 200 5 gusting 7 14.2
2019-Nov-11 15:15 200 4 gusting 7 14.7
2019-Nov-11 15:10 210 6 gusting 7 14.2
2019-Nov-11 15:05 210 6 gusting 7 14.3
2019-Nov-11 15:00 215 5 gusting 7 14.3
2019-Nov-11 14:55 205 6 gusting 9 13.9
2019-Nov-11 14:50 210 6 gusting 9 13.9
2019-Nov-11 14:45 215 6 gusting 9 13.9
2019-Nov-11 14:40 200 6 gusting 9 13.9
2019-Nov-11 14:35 205 6 gusting 9 13.8
2019-Nov-11 14:30 210 6 gusting 9 13.4
2019-Nov-11 14:25 205 6 gusting 9 13.3
2019-Nov-11 14:20 195 6 gusting 8 13.3
2019-Nov-11 14:15 210 5 gusting 9 13.3
2019-Nov-11 14:10 200 7 gusting 10 13.1
2019-Nov-11 14:05 200 7 gusting 10 13.1
2019-Nov-11 14:00 195 8 gusting 11 12.8
2019-Nov-11 13:55 200 8 gusting 11 12.8
2019-Nov-11 13:50 195 7 gusting 10 12.8
2019-Nov-11 13:45 200 8 gusting 10 12.6
2019-Nov-11 13:40 195 6 gusting 9 12.6
2019-Nov-11 13:35 200 6 gusting 10 12.3
2019-Nov-11 13:30 180 6 gusting 10 12.2
2019-Nov-11 13:25 185 6 gusting 11 11.8
2019-Nov-11 13:20 175 6 gusting 13 11.6
2019-Nov-11 13:15 175 11 gusting 13 11.2
2019-Nov-11 13:10 175 9 gusting 12 10.9
2019-Nov-11 13:05 180 7 gusting 10 10.7
2019-Nov-11 13:00 170 7 gusting 11 10.4
2019-Nov-11 12:55 170 9 gusting 11 10.3
2019-Nov-11 12:50 165 8 gusting 10 10.2
2019-Nov-11 12:45 165 8 gusting 10 10.2
2019-Nov-11 12:40 170 7 gusting 9 10.1
2019-Nov-11 12:35 165 6 gusting 9 10.0
2019-Nov-11 12:30 165 7 gusting 8 10.0
2019-Nov-11 12:25 165 6 gusting 10 9.8
2019-Nov-11 12:20 175 7 gusting 10 10.0
2019-Nov-11 12:15 175 6 gusting 9 9.8
2019-Nov-11 12:10 180 6 gusting 9 9.7
2019-Nov-11 12:05 180 6 gusting 9 9.7
2019-Nov-11 12:00 175 8 gusting 10 9.6
2019-Nov-11 11:55 180 7 gusting 10 9.6
2019-Nov-11 11:50 175 7 gusting 10 9.6
2019-Nov-11 11:45 180 7 gusting 11 9.6
2019-Nov-11 11:40 175 8 gusting 11 9.6
2019-Nov-11 11:35 175 8 gusting 10 9.7
2019-Nov-11 11:30 175 8 gusting 10 9.6
2019-Nov-11 11:25 175 7 gusting 11 9.7
2019-Nov-11 11:20 175 8 gusting 11 9.7
2019-Nov-11 11:15 175 9 gusting 11 9.8
2019-Nov-11 11:10 180 8 gusting 11 10.0
2019-Nov-11 11:05 170 8 gusting 11 10.0
2019-Nov-11 11:00 175 9 gusting 11 10.2
2019-Nov-11 10:55 180 8 gusting 11 10.2
2019-Nov-11 10:50 175 7 gusting 11 10.2
2019-Nov-11 10:45 180 7 gusting 11 10.2
2019-Nov-11 10:40 170 8 gusting 10 10.1
2019-Nov-11 10:35 170 8 gusting 10 10.1
2019-Nov-11 10:30 170 8 gusting 10 10.1
2019-Nov-11 10:25 170 7 gusting 9 10.0
2019-Nov-11 10:20 165 7 gusting 9 10.1
2019-Nov-11 10:15 175 7 gusting 9 10.1
2019-Nov-11 10:10 170 7 gusting 9 10.1
2019-Nov-11 10:05 175 8 gusting 10 10.1
2019-Nov-11 10:00 170 8 gusting 11 10.1
2019-Nov-11 09:55 170 8 gusting 11 10.1
2019-Nov-11 09:50 175 8 gusting 10 10.2
2019-Nov-11 09:45 180 8 gusting 10 10.2
2019-Nov-11 09:40 180 8 gusting 10 10.2
2019-Nov-11 09:35 180 8 gusting 10 10.1
2019-Nov-11 09:30 175 8 gusting 10 10.0
2019-Nov-11 09:25 170 7 gusting 10 10.0
2019-Nov-11 09:20 175 7 gusting 9 10.1
2019-Nov-11 09:15 180 7 gusting 9 10.1
2019-Nov-11 09:10 180 5 gusting 8 10.0
2019-Nov-11 09:05 180 6 gusting 8 10.1
2019-Nov-11 09:00 180 6 gusting 8 10.0
2019-Nov-11 08:55 170 5 gusting 6 9.6
2019-Nov-11 08:50 160 4 gusting 8 9.5
2019-Nov-11 08:45 155 5 gusting 9 9.6
2019-Nov-11 08:40 145 7 gusting 9 9.6
2019-Nov-11 08:35 150 7 gusting 9 9.3
2019-Nov-11 08:30 150 7 gusting 9 9.6
2019-Nov-11 08:25 160 7 gusting 9 9.7
2019-Nov-11 08:20 165 6 gusting 8 9.7
2019-Nov-11 08:15 165 7 gusting 8 9.7
2019-Nov-11 08:10 170 6 gusting 7 9.7
2019-Nov-11 08:05 180 5 gusting 6 9.6
2019-Nov-11 08:00 180 4 gusting 7 9.6
2019-Nov-11 07:55 175 5 gusting 8 9.6
2019-Nov-11 07:50 180 6 gusting 8 10.0
2019-Nov-11 07:45 175 7 gusting 10 9.8
2019-Nov-11 07:40 175 7 gusting 10 10.0
2019-Nov-11 07:35 190 6 gusting 9 9.8
2019-Nov-11 07:30 195 6 gusting 9 9.8
2019-Nov-11 07:25 195 5 gusting 9 9.8
2019-Nov-11 07:20 180 6 gusting 8 10.0
2019-Nov-11 07:15 165 5 gusting 8 9.7
2019-Nov-11 07:10 165 6 gusting 8 9.7
2019-Nov-11 07:05 160 6 gusting 9 9.8
2019-Nov-11 07:00 165 7 gusting 9 10.0
2019-Nov-11 06:55 165 7 gusting 10 10.1
2019-Nov-11 06:50 165 7 gusting 10 10.0
2019-Nov-11 06:45 170 7 gusting 9 9.7
2019-Nov-11 06:40 170 6 gusting 8 9.6
2019-Nov-11 06:35 175 6 gusting 8 9.6
2019-Nov-11 06:30 175 6 gusting 9 9.6
2019-Nov-11 06:25 170 7 gusting 9 9.6
2019-Nov-11 06:20 165 7 gusting 8 9.6
2019-Nov-11 06:15 160 7 gusting 8 9.6
2019-Nov-11 06:10 165 6 gusting 8 9.7
2019-Nov-11 06:05 165 6 gusting 8 9.8
2019-Nov-11 06:00 165 6 gusting 7 10.0
2019-Nov-11 05:55 170 6 gusting 7 9.8
2019-Nov-11 05:50 170 5 gusting 7 9.8
2019-Nov-11 05:45 170 6 gusting 8 9.8
2019-Nov-11 05:40 165 6 gusting 9 9.8
2019-Nov-11 05:35 170 7 gusting 9 9.8
2019-Nov-11 05:30 170 8 gusting 9 9.7
2019-Nov-11 05:25 175 7 gusting 9 10.0
2019-Nov-11 05:20 180 6 gusting 8 10.0
2019-Nov-11 05:15 175 6 gusting 8 10.0
2019-Nov-11 05:10 185 6 gusting 8 9.7
2019-Nov-11 05:05 185 6 gusting 8 9.8
2019-Nov-11 05:00 185 5 gusting 8 10.2
2019-Nov-11 04:55 200 6 gusting 7 10.1
2019-Nov-11 04:50 185 5 gusting 6 10.1
2019-Nov-11 04:45 175 5 gusting 6 10.1
2019-Nov-11 04:40 175 5 gusting 6 10.0
2019-Nov-11 04:35 170 5 gusting 7 10.0
2019-Nov-11 04:30 170 5 gusting 7 10.0
2019-Nov-11 04:25 175 5 gusting 6 9.8
2019-Nov-11 04:20 165 3 gusting 5 9.7
2019-Nov-11 04:15 165 3 gusting 5 9.7
2019-Nov-11 04:10 160 4 gusting 5 9.7
2019-Nov-11 04:05 160 3 gusting 5 9.6
2019-Nov-11 04:00 165 3 gusting 5 9.7
2019-Nov-11 03:55 165 5 gusting 5 9.6
2019-Nov-11 03:50 165 3 gusting 5 9.3
2019-Nov-11 03:45 165 4 gusting 5 9.2
2019-Nov-11 03:40 160 4 gusting 6 9.1
2019-Nov-11 03:35 155 4 gusting 6 9.3
2019-Nov-11 03:30 150 4 gusting 5 9.6
2019-Nov-11 03:25 155 3 gusting 8 9.8
2019-Nov-11 03:20 165 6 gusting 8 10.0
2019-Nov-11 03:15 165 6 gusting 7 10.0
2019-Nov-11 03:10 170 4 gusting 6 9.6
2019-Nov-11 03:05 165 5 gusting 7 9.6
2019-Nov-11 03:00 160 5 gusting 7 9.6
2019-Nov-11 02:55 155 4 gusting 6 9.6
2019-Nov-11 02:50 155 4 gusting 6 9.6
2019-Nov-11 02:45 160 4 gusting 6 9.6
2019-Nov-11 02:40 155 4 gusting 6 9.6
2019-Nov-11 02:35 160 4 gusting 6 9.6
2019-Nov-11 02:30 155 5 gusting 6 9.6
2019-Nov-11 02:25 155 5 gusting 6 9.6
2019-Nov-11 02:20 160 5 gusting 6 9.5
2019-Nov-11 02:15 160 4 gusting 6 9.5
2019-Nov-11 02:10 150 4 gusting 7 9.6
2019-Nov-11 02:05 140 6 gusting 7 9.7
2019-Nov-11 02:00 145 5 gusting 6 9.6
2019-Nov-11 01:55 155 5 gusting 6 9.5
2019-Nov-11 01:50 150 5 gusting 6 9.3
2019-Nov-11 01:45 145 4 gusting 6 9.5
2019-Nov-11 01:40 145 4 gusting 6 9.6
2019-Nov-11 01:35 150 4 gusting 6 10.0
2019-Nov-11 01:30 165 5 gusting 5 10.0
2019-Nov-11 01:25 170 4 gusting 6 10.0
2019-Nov-11 01:20 175 4 gusting 6 10.2
2019-Nov-11 01:15 180 4 gusting 6 10.3
2019-Nov-11 01:10 180 5 gusting 6 10.3
2019-Nov-11 01:05 185 4 gusting 6 10.2
2019-Nov-11 01:00 190 5 gusting 6 10.2
2019-Nov-11 00:55 185 5 gusting 6 10.3
2019-Nov-11 00:50 185 5 gusting 6 10.2
2019-Nov-11 00:45 190 4 gusting 7 10.2
2019-Nov-11 00:40 180 5 gusting 7 10.6
2019-Nov-11 00:35 180 6 gusting 8 10.6
2019-Nov-11 00:30 180 5 gusting 8 10.7
2019-Nov-11 00:25 185 5 gusting 7 10.4
2019-Nov-11 00:20 185 5 gusting 7 10.6
2019-Nov-11 00:15 175 6 gusting 10 10.4
2019-Nov-11 00:10 170 6 gusting 10 10.8
2019-Nov-11 00:05 180 5 gusting 9 10.8
2019-Nov-11 00:00 185 7 gusting 8 10.8
2019-Nov-10 23:55 180 6 gusting 8 10.7
2019-Nov-10 23:50 185 4 gusting 7 10.7
2019-Nov-10 23:45 180 6 gusting 7 10.8
2019-Nov-10 23:40 180 6 gusting 8 10.8
2019-Nov-10 23:35 175 6 gusting 8 10.9
2019-Nov-10 23:30 180 5 gusting 7 10.8
2019-Nov-10 23:25 180 6 gusting 8 11.1
2019-Nov-10 23:20 180 7 gusting 9 11.2
2019-Nov-10 23:15 180 6 gusting 9 11.2
2019-Nov-10 23:10 185 6 gusting 8 11.2
2019-Nov-10 23:05 185 6 gusting 10 11.3
2019-Nov-10 23:00 185 5 gusting 10 11.3
2019-Nov-10 22:55 190 6 gusting 8 11.2
2019-Nov-10 22:50 195 5 gusting 9 11.3
2019-Nov-10 22:45 190 7 gusting 9 11.4
2019-Nov-10 22:40 190 6 gusting 9 11.7
2019-Nov-10 22:35 195 7 gusting 11 11.8
2019-Nov-10 22:30 190 8 gusting 11 11.8
2019-Nov-10 22:25 190 8 gusting 11 11.8
2019-Nov-10 22:20 195 8 gusting 12 11.8
2019-Nov-10 22:15 205 7 gusting 12 11.8
2019-Nov-10 22:10 200 8 gusting 12 11.9
2019-Nov-10 22:05 195 8 gusting 11 11.9
2019-Nov-10 22:00 195 9 gusting 11 12.1
2019-Nov-10 21:55 190 8 gusting 13 12.2
2019-Nov-10 21:50 195 8 gusting 13 12.2
2019-Nov-10 21:45 190 9 gusting 12 12.4
2019-Nov-10 21:40 195 9 gusting 12 12.6
2019-Nov-10 21:35 190 8 gusting 13 12.8
2019-Nov-10 21:30 195 9 gusting 13 12.8
2019-Nov-10 21:25 185 10 gusting 13 12.8
2019-Nov-10 21:20 185 7 gusting 10 12.9
2019-Nov-10 21:15 190 6 gusting 9 13.1
2019-Nov-10 21:10 205 6 gusting 9 13.2
2019-Nov-10 21:05 215 6 gusting 9 13.3
2019-Nov-10 21:00 210 7 gusting 10 13.3
2019-Nov-10 20:55 215 8 gusting 12 13.4
2019-Nov-10 20:50 195 9 gusting 12 13.3
2019-Nov-10 20:45 195 10 gusting 12 13.2
2019-Nov-10 20:40 200 9 gusting 12 13.3
2019-Nov-10 20:35 200 9 gusting 12 13.8
2019-Nov-10 20:30 210 7 gusting 11 13.7
2019-Nov-10 20:25 210 9 gusting 11 13.7
2019-Nov-10 20:20 210 7 gusting 11 13.6
2019-Nov-10 20:15 195 7 gusting 13 13.6
2019-Nov-10 20:10 200 9 gusting 13 13.8
2019-Nov-10 20:05 195 9 gusting 12 13.7
2019-Nov-10 20:00 200 8 gusting 11 13.3
2019-Nov-10 19:55 200 8 gusting 11 13.4
2019-Nov-10 19:50 215 7 gusting 11 13.6
2019-Nov-10 19:45 205 8 gusting 11 13.6
2019-Nov-10 19:40 210 7 gusting 12 13.6
2019-Nov-10 19:35 215 9 gusting 12 13.7
2019-Nov-10 19:30 200 9 gusting 11 13.8
2019-Nov-10 19:25 195 7 gusting 10 13.7
2019-Nov-10 19:20 200 6 gusting 11 13.9
2019-Nov-10 19:15 190 7 gusting 11 14.2
2019-Nov-10 19:10 185 7 gusting 11 14.1
2019-Nov-10 19:05 190 6 gusting 11 14.1
2019-Nov-10 19:00 180 8 gusting 12 13.8
2019-Nov-10 18:55 190 7 gusting 13 14.2
2019-Nov-10 18:50 180 10 gusting 13 13.9
2019-Nov-10 18:45 175 6 gusting 12 14.2
2019-Nov-10 18:40 175 9 gusting 12 14.2
2019-Nov-10 18:35 175 6 gusting 12 14.2
2019-Nov-10 18:30 165 9 gusting 13 14.2
2019-Nov-10 18:25 170 11 gusting 14 14.2
2019-Nov-10 18:20 165 9 gusting 14 14.2
2019-Nov-10 18:15 170 11 gusting 14 14.7
2019-Nov-10 18:10 165 7 gusting 13 14.4
2019-Nov-10 18:05 165 8 gusting 10 14.3
2019-Nov-10 18:00 170 7 gusting 12 14.1
2019-Nov-10 17:55 180 8 gusting 14 14.4
2019-Nov-10 17:50 170 12 gusting 14 14.6
2019-Nov-10 17:45 170 8 gusting 12 14.1
2019-Nov-10 17:40 170 10 gusting 12 14.2
2019-Nov-10 17:35 160 9 gusting 12 14.3
2019-Nov-10 17:30 180 9 gusting 13 13.8
2019-Nov-10 17:25 165 10 gusting 13 13.8
2019-Nov-10 17:20 180 10 gusting 13 13.7
2019-Nov-10 17:15 175 8 gusting 13 13.4
2019-Nov-10 17:10 165 9 gusting 13 13.7
2019-Nov-10 17:05 165 10 gusting 13 13.2
2019-Nov-10 17:00 170 8 gusting 14 13.2
2019-Nov-10 16:55 170 10 gusting 14 13.3
2019-Nov-10 16:50 180 10 gusting 13 13.1
2019-Nov-10 16:45 170 7 gusting 14 13.2
2019-Nov-10 16:40 175 10 gusting 15 12.6
2019-Nov-10 16:35 175 11 gusting 15 12.3
2019-Nov-10 16:30 175 10 gusting 15 12.3
2019-Nov-10 16:25 185 10 gusting 16 12.2
2019-Nov-10 16:20 190 11 gusting 16 12.3
2019-Nov-10 16:15 175 11 gusting 16 12.7
2019-Nov-10 16:10 175 13 gusting 16 12.2
2019-Nov-10 16:05 170 11 gusting 16 12.1
2019-Nov-10 16:00 170 13 gusting 16 11.8
2019-Nov-10 15:55 175 9 gusting 15 11.9
2019-Nov-10 15:50 180 11 gusting 16 11.8
2019-Nov-10 15:45 185 9 gusting 16 11.8
2019-Nov-10 15:40 170 13 gusting 16 11.2
2019-Nov-10 15:35 175 12 gusting 16 11.3
2019-Nov-10 15:30 175 13 gusting 16 11.3
2019-Nov-10 15:25 175 14 gusting 16 11.2
2019-Nov-10 15:20 165 11 gusting 17 11.3
2019-Nov-10 15:15 170 12 gusting 17 11.2
2019-Nov-10 15:10 165 13 gusting 16 10.9
2019-Nov-10 15:05 170 11 gusting 14 10.2
2019-Nov-10 15:00 170 10 gusting 14 10.2
2019-Nov-10 14:55 165 11 gusting 14 10.1
2019-Nov-10 14:50 170 11 gusting 13 10.0
2019-Nov-10 14:45 170 11 gusting 13 9.6
2019-Nov-10 14:40 175 10 gusting 12 9.6
2019-Nov-10 14:35 165 9 gusting 12 9.7
2019-Nov-10 14:30 175 9 gusting 12 9.5
2019-Nov-10 14:25 175 10 gusting 12 9.6
2019-Nov-10 14:20 165 10 gusting 14 9.2
2019-Nov-10 14:15 170 9 gusting 14 9.1
2019-Nov-10 14:10 170 9 gusting 13 8.8
2019-Nov-10 14:05 175 10 gusting 13 8.7
2019-Nov-10 14:00 165 11 gusting 13 8.6
2019-Nov-10 13:55 165 10 gusting 13 8.5
2019-Nov-10 13:50 165 9 gusting 13 8.6
2019-Nov-10 13:45 165 10 gusting 13 8.6
2019-Nov-10 13:40 160 10 gusting 13 8.3
2019-Nov-10 13:35 165 10 gusting 13 8.1
2019-Nov-10 13:30 155 9 gusting 13 7.8
2019-Nov-10 13:25 160 10 gusting 13 7.6
2019-Nov-10 13:20 155 11 gusting 13 7.2
2019-Nov-10 13:15 155 9 gusting 13 7.2
2019-Nov-10 13:10 160 9 gusting 13 7.3
2019-Nov-10 13:05 165 8 gusting 12 7.1
2019-Nov-10 13:00 170 8 gusting 12 6.8
2019-Nov-10 12:55 160 8 gusting 10 6.7
2019-Nov-10 12:50 165 8 gusting 11 6.6
2019-Nov-10 12:45 165 8 gusting 13 6.6
2019-Nov-10 12:40 165 11 gusting 13 6.5
2019-Nov-10 12:35 170 9 gusting 13 6.6
2019-Nov-10 12:30 165 10 gusting 13 6.5
2019-Nov-10 12:25 160 10 gusting 13 6.5
2019-Nov-10 12:20 160 10 gusting 12 6.2
2019-Nov-10 12:15 155 9 gusting 12 6.1
2019-Nov-10 12:10 160 9 gusting 11 6.1
2019-Nov-10 12:05 160 8 gusting 11 6.0
2019-Nov-10 12:00 155 8 gusting 13 6.1
2019-Nov-10 11:55 160 9 gusting 13 6.0
2019-Nov-10 11:50 165 10 gusting 13 6.0
2019-Nov-10 11:45 165 9 gusting 13 6.0
2019-Nov-10 11:40 170 10 gusting 13 6.0
2019-Nov-10 11:35 165 9 gusting 14 5.8
2019-Nov-10 11:30 170 10 gusting 14 5.8
2019-Nov-10 11:25 165 9 gusting 12 5.7
2019-Nov-10 11:20 160 8 gusting 12 5.7
2019-Nov-10 11:15 165 8 gusting 10 5.7
2019-Nov-10 11:10 160 8 gusting 12 5.7
2019-Nov-10 11:05 165 8 gusting 12 5.8
2019-Nov-10 11:00 165 7 gusting 12 6.0
2019-Nov-10 10:55 165 9 gusting 12 5.8
2019-Nov-10 10:50 165 9 gusting 11 5.8
2019-Nov-10 10:45 165 8 gusting 11 5.7
2019-Nov-10 10:40 165 7 gusting 9 5.6
2019-Nov-10 10:35 155 7 gusting 9 5.3
2019-Nov-10 10:30 150 6 gusting 9 5.3
2019-Nov-10 10:25 150 7 gusting 9 5.6
2019-Nov-10 10:20 155 7 gusting 9 5.3
2019-Nov-10 10:15 155 7 gusting 9 5.1
2019-Nov-10 10:10 150 6 gusting 8 4.8
2019-Nov-10 10:05 150 6 gusting 8 4.6
2019-Nov-10 10:00 145 6 gusting 8 4.5
2019-Nov-10 09:55 145 6 gusting 8 4.6
2019-Nov-10 09:50 140 6 gusting 8 4.6
2019-Nov-10 09:45 145 6 gusting 7 4.6
2019-Nov-10 09:40 150 5 gusting 7 4.5
2019-Nov-10 09:35 145 6 gusting 7 4.5
2019-Nov-10 09:30 145 6 gusting 8 4.6
2019-Nov-10 09:25 145 7 gusting 8 4.7
2019-Nov-10 09:20 140 7 gusting 8 4.6
2019-Nov-10 09:15 150 6 gusting 8 4.7
2019-Nov-10 09:10 150 6 gusting 8 4.6
2019-Nov-10 09:05 150 5 gusting 7 4.6
2019-Nov-10 09:00 155 5 gusting 7 4.5
2019-Nov-10 08:55 155 5 gusting 7 4.3
2019-Nov-10 08:50 155 5 gusting 7 4.1
2019-Nov-10 08:45 150 6 gusting 7 4.2
2019-Nov-10 08:40 145 5 gusting 7 4.1
2019-Nov-10 08:35 150 4 gusting 7 4.2
2019-Nov-10 08:30 145 6 gusting 7 4.1
2019-Nov-10 08:25 145 6 gusting 7 4.1
2019-Nov-10 08:20 145 5 gusting 7 4.1
2019-Nov-10 08:15 150 6 gusting 7 4.2
2019-Nov-10 08:10 145 6 gusting 7 4.2
2019-Nov-10 08:05 145 5 gusting 7 4.2
2019-Nov-10 08:00 150 5 gusting 6 4.1
2019-Nov-10 07:55 145 5 gusting 6 4.1
2019-Nov-10 07:50 145 4 gusting 6 4.1
2019-Nov-10 07:45 150 4 gusting 6 4.1
2019-Nov-10 07:40 155 5 gusting 6 4.1
2019-Nov-10 07:35 155 5 gusting 7 4.1
2019-Nov-10 07:30 150 5 gusting 7 3.9
2019-Nov-10 07:25 150 5 gusting 7 4.1
2019-Nov-10 07:20 150 5 gusting 7 4.2
2019-Nov-10 07:15 150 4 gusting 6 4.1
2019-Nov-10 07:10 150 5 gusting 6 4.2
2019-Nov-10 07:05 150 4 gusting 5 4.1
2019-Nov-10 07:00 155 4 gusting 5 4.1
2019-Nov-10 06:55 160 4 gusting 5 4.1
2019-Nov-10 06:50 165 3 gusting 5 4.0
2019-Nov-10 06:45 160 3 gusting 4 4.1
2019-Nov-10 06:40 160 3 gusting 4 4.2
2019-Nov-10 06:35 170 3 gusting 4 4.2
2019-Nov-10 06:30 170 3 gusting 4 4.2
2019-Nov-10 06:25 170 2 gusting 3 4.2
2019-Nov-10 06:20 165 3 gusting 4 4.2
2019-Nov-10 06:15 175 3 gusting 4 4.2
2019-Nov-10 06:10 180 3 gusting 4 4.3
2019-Nov-10 06:05 170 3 gusting 4 4.3
2019-Nov-10 06:00 175 3 gusting 3 4.6
2019-Nov-10 05:55 165 2 gusting 3 4.6
2019-Nov-10 05:50 160 2 gusting 3 4.5
2019-Nov-10 05:45 175 3 gusting 3 4.5
2019-Nov-10 05:40 170 3 gusting 4 4.6
2019-Nov-10 05:35 175 3 gusting 4 4.5
2019-Nov-10 05:30 170 3 gusting 4 4.5
2019-Nov-10 05:25 165 3 gusting 4 4.6
2019-Nov-10 05:20 155 3 gusting 3 4.6
2019-Nov-10 05:15 165 3 gusting 3 4.6
2019-Nov-10 05:10 175 2 gusting 3 4.6
2019-Nov-10 05:05 160 2 gusting 4 4.6
2019-Nov-10 05:00 170 3 gusting 4 4.5
2019-Nov-10 04:55 170 3 gusting 4 4.5
2019-Nov-10 04:50 160 3 gusting 4 4.6
2019-Nov-10 04:45 150 3 gusting 4 4.6
2019-Nov-10 04:40 165 3 gusting 4 4.6
2019-Nov-10 04:35 165 3 gusting 4 4.6
2019-Nov-10 04:30 175 3 gusting 4 4.6
2019-Nov-10 04:25 165 3 gusting 4 4.6
2019-Nov-10 04:20 170 3 gusting 4 4.6
2019-Nov-10 04:15 165 3 gusting 4 4.5
2019-Nov-10 04:10 175 3 gusting 4 4.5
2019-Nov-10 04:05 180 3 gusting 4 4.3
2019-Nov-10 04:00 170 2 gusting 3 4.2
2019-Nov-10 03:55 160 3 gusting 3 4.1
2019-Nov-10 03:50 155 2 gusting 3 4.2
2019-Nov-10 03:45 155 3 gusting 3 4.3
2019-Nov-10 03:40 150 3 gusting 3 4.6
2019-Nov-10 03:35 155 3 gusting 5 4.7
2019-Nov-10 03:30 150 3 gusting 5 5.0
2019-Nov-10 03:25 165 4 gusting 6 5.0
2019-Nov-10 03:20 165 5 gusting 6 5.1
2019-Nov-10 03:15 185 4 gusting 5 5.1
2019-Nov-10 03:10 185 4 gusting 6 5.1
2019-Nov-10 03:05 180 4 gusting 6 5.1
2019-Nov-10 03:00 175 5 gusting 5 5.0
2019-Nov-10 02:55 185 3 gusting 5 5.1
2019-Nov-10 02:50 175 4 gusting 5 5.1
2019-Nov-10 02:45 180 3 gusting 5 5.1
2019-Nov-10 02:40 170 3 gusting 6 5.1
2019-Nov-10 02:35 185 4 gusting 6 5.1
2019-Nov-10 02:30 180 3 gusting 6 5.2
2019-Nov-10 02:25 175 4 gusting 6 5.2
2019-Nov-10 02:20 180 5 gusting 6 5.1
2019-Nov-10 02:15 195 5 gusting 6 5.1
2019-Nov-10 02:10 180 4 gusting 6 5.1
2019-Nov-10 02:05 200 4 gusting 6 5.1
2019-Nov-10 02:00 195 5 gusting 6 5.1
2019-Nov-10 01:55 195 4 gusting 6 5.1
2019-Nov-10 01:50 185 4 gusting 7 5.1
2019-Nov-10 01:45 190 4 gusting 7 5.1
2019-Nov-10 01:40 175 5 gusting 6 5.2
2019-Nov-10 01:35 185 4 gusting 6 5.1
2019-Nov-10 01:30 190 5 gusting 7 5.1
2019-Nov-10 01:25 190 5 gusting 7 5.1
2019-Nov-10 01:20 190 5 gusting 8 5.0
2019-Nov-10 01:15 190 5 gusting 8 5.1
2019-Nov-10 01:10 165 5 gusting 7 5.1
2019-Nov-10 01:05 170 6 gusting 7 5.1
2019-Nov-10 01:00 165 5 gusting 8 5.1
2019-Nov-10 00:55 170 5 gusting 8 5.1
2019-Nov-10 00:50 180 7 gusting 9 5.2
2019-Nov-10 00:45 165 7 gusting 9 5.3
2019-Nov-10 00:40 175 5 gusting 8 5.3
2019-Nov-10 00:35 175 6 gusting 9 5.2
2019-Nov-10 00:30 185 6 gusting 10 5.3
2019-Nov-10 00:25 180 7 gusting 10 5.3
2019-Nov-10 00:20 185 8 gusting 10 5.3
2019-Nov-10 00:15 180 6 gusting 9 5.6
2019-Nov-10 00:10 170 7 gusting 9 5.6
2019-Nov-10 00:05 170 7 gusting 10 5.6
2019-Nov-10 00:00 180 8 gusting 10 5.6
2019-Nov-09 23:55 175 6 gusting 10 5.6
2019-Nov-09 23:50 165 8 gusting 10 5.7
2019-Nov-09 23:45 175 7 gusting 10 5.7
2019-Nov-09 23:40 170 8 gusting 10 5.8
2019-Nov-09 23:35 180 7 gusting 10 5.7
2019-Nov-09 23:30 175 5 gusting 9 5.7
2019-Nov-09 23:25 175 7 gusting 9 5.8
2019-Nov-09 23:20 165 7 gusting 8 5.8
2019-Nov-09 23:15 170 6 gusting 8 5.8
2019-Nov-09 23:10 155 6 gusting 8 6.0
2019-Nov-09 23:05 165 6 gusting 8 6.0
2019-Nov-09 23:00 165 6 gusting 9 6.0
2019-Nov-09 22:55 165 7 gusting 9 6.0
2019-Nov-09 22:50 165 6 gusting 8 6.0
2019-Nov-09 22:45 160 6 gusting 8 6.0
2019-Nov-09 22:40 160 6 gusting 7 5.8
2019-Nov-09 22:35 150 6 gusting 7 6.0
2019-Nov-09 22:30 160 5 gusting 7 6.0
2019-Nov-09 22:25 150 5 gusting 7 6.0
2019-Nov-09 22:20 160 5 gusting 6 6.0
2019-Nov-09 22:15 165 5 gusting 6 6.0
2019-Nov-09 22:10 155 5 gusting 7 5.8
2019-Nov-09 22:05 140 5 gusting 7 6.0
2019-Nov-09 22:00 155 6 gusting 7 6.2
2019-Nov-09 21:55 150 5 gusting 7 6.2
2019-Nov-09 21:50 155 5 gusting 7 6.3
2019-Nov-09 21:45 145 4 gusting 7 6.5
2019-Nov-09 21:40 140 5 gusting 7 6.5
2019-Nov-09 21:35 155 4 gusting 6 6.7
2019-Nov-09 21:30 160 4 gusting 7 6.8
2019-Nov-09 21:25 145 5 gusting 7 7.1
2019-Nov-09 21:20 150 5 gusting 7 7.2
2019-Nov-09 21:15 160 2 gusting 6 7.6
2019-Nov-09 21:10 140 3 gusting 7 7.5
2019-Nov-09 21:05 155 5 gusting 7 7.1
2019-Nov-09 21:00 115 4 gusting 7 7.1